Time,TemperatureF,DewpointF,PressureIn,WindDirection,WindDirectionDegrees,WindSpeedMPH,WindSpeedGustMPH,Humidity,HourlyPrecipIn,Conditions,Clouds,dailyrainin,SolarRadiationWatts/m^2,SoftwareType,DateUTC
2013-06-09 00:02:00,87.0,72.0,-100.00,SSE,152,5.0,14.0,61,0.00,,,0.00,356.000000,,2013-06-09 00:02:00,
2013-06-09 00:32:00,84.0,70.0,-100.00,SSE,158,5.0,13.0,64,0.00,,,0.00,212.000000,,2013-06-09 00:32:00,
2013-06-09 00:42:00,84.0,70.0,-100.00,SSE,158,5.0,13.0,64,0.00,,,0.00,212.000000,,2013-06-09 00:42:00,
2013-06-09 00:52:00,84.0,70.0,-100.00,SSE,158,5.0,13.0,64,0.00,,,0.00,212.000000,,2013-06-09 00:52:00,
2013-06-09 01:02:00,84.0,70.0,-100.00,SSE,158,5.0,13.0,64,0.00,,,0.00,212.000000,,2013-06-09 01:02:00,
2013-06-09 01:32:00,78.0,71.0,-100.00,ESE,120,5.0,9.0,80,0.00,,,0.00,35.000000,,2013-06-09 01:32:00,
2013-06-09 01:42:00,78.0,71.0,-100.00,ESE,120,5.0,9.0,80,0.00,,,0.00,35.000000,,2013-06-09 01:42:00,
2013-06-09 01:52:00,78.0,71.0,-100.00,ESE,120,5.0,9.0,80,0.00,,,0.00,35.000000,,2013-06-09 01:52:00,
2013-06-09 02:02:00,78.0,71.0,-100.00,ESE,120,5.0,9.0,80,0.00,,,0.00,35.000000,,2013-06-09 02:02:00,
2013-06-09 02:32:00,76.0,72.0,-100.00,SE,138,3.0,7.0,86,0.00,,,0.00,1.000000,,2013-06-09 02:32:00,
2013-06-09 02:42:00,76.0,72.0,-100.00,SE,138,3.0,7.0,86,0.00,,,0.00,1.000000,,2013-06-09 02:42:00,
2013-06-09 02:52:00,76.0,72.0,-100.00,SE,138,3.0,7.0,86,0.00,,,0.00,1.000000,,2013-06-09 02:52:00,
2013-06-09 03:02:00,76.0,72.0,-100.00,SE,138,3.0,7.0,86,0.00,,,0.00,1.000000,,2013-06-09 03:02:00,
2013-06-09 03:33:00,73.0,70.0,-100.00,ESE,111,3.0,6.0,90,0.00,,,0.00,0.000000,,2013-06-09 03:33:00,
2013-06-09 03:43:00,73.0,70.0,-100.00,ESE,111,3.0,6.0,90,0.00,,,0.00,0.000000,,2013-06-09 03:43:00,
2013-06-09 03:53:00,73.0,70.0,-100.00,ESE,111,3.0,6.0,90,0.00,,,0.00,0.000000,,2013-06-09 03:53:00,
2013-06-09 04:03:00,73.0,70.0,-100.00,ESE,111,3.0,6.0,90,0.00,,,0.00,0.000000,,2013-06-09 04:03:00,
2013-06-09 04:33:00,72.0,70.0,-100.00,SE,134,4.0,7.0,92,0.00,,,0.00,0.000000,,2013-06-09 04:33:00,
2013-06-09 04:43:00,72.0,70.0,-100.00,SE,134,4.0,7.0,92,0.00,,,0.00,0.000000,,2013-06-09 04:43:00,
2013-06-09 04:53:00,72.0,70.0,-100.00,SE,134,4.0,7.0,92,0.00,,,0.00,0.000000,,2013-06-09 04:53:00,
2013-06-09 05:02:00,72.0,70.0,-100.00,SE,134,4.0,7.0,92,0.00,,,0.00,0.000000,,2013-06-09 05:02:00,
2013-06-09 05:32:00,71.0,69.0,-100.00,SE,126,3.0,7.0,94,0.00,,,0.00,0.000000,,2013-06-09 05:32:00,
2013-06-09 05:42:00,71.0,69.0,-100.00,SE,126,3.0,7.0,94,0.00,,,0.00,0.000000,,2013-06-09 05:42:00,
2013-06-09 05:52:00,71.0,69.0,-100.00,SE,126,3.0,7.0,94,0.00,,,0.00,0.000000,,2013-06-09 05:52:00,
2013-06-09 06:02:00,71.0,69.0,-100.00,SE,126,3.0,7.0,94,0.00,,,0.00,0.000000,,2013-06-09 06:02:00,
2013-06-09 06:32:00,70.0,68.0,-100.00,East,99,3.0,5.0,95,0.00,,,0.00,0.000000,,2013-06-09 06:32:00,
2013-06-09 06:42:00,70.0,68.0,-100.00,East,99,3.0,5.0,95,0.00,,,0.00,0.000000,,2013-06-09 06:42:00,
2013-06-09 06:52:00,70.0,68.0,-100.00,East,99,3.0,5.0,95,0.00,,,0.00,0.000000,,2013-06-09 06:52:00,
2013-06-09 07:02:00,70.0,68.0,-100.00,East,99,3.0,5.0,95,0.00,,,0.00,0.000000,,2013-06-09 07:02:00,
2013-06-09 07:32:00,70.0,69.0,-100.00,ESE,110,3.0,7.0,96,0.00,,,0.00,0.000000,,2013-06-09 07:32:00,
2013-06-09 07:42:00,70.0,69.0,-100.00,ESE,110,3.0,7.0,96,0.00,,,0.00,0.000000,,2013-06-09 07:42:00,
2013-06-09 07:52:00,70.0,69.0,-100.00,ESE,110,3.0,7.0,96,0.00,,,0.00,0.000000,,2013-06-09 07:52:00,
2013-06-09 08:02:00,70.0,69.0,-100.00,ESE,110,3.0,7.0,96,0.00,,,0.00,0.000000,,2013-06-09 08:02:00,
2013-06-09 08:32:00,69.0,68.0,-100.00,ESE,111,3.0,6.0,96,0.00,,,0.00,0.000000,,2013-06-09 08:32:00,
2013-06-09 08:42:00,69.0,68.0,-100.00,ESE,111,3.0,6.0,96,0.00,,,0.00,0.000000,,2013-06-09 08:42:00,
2013-06-09 08:53:00,69.0,68.0,-100.00,ESE,111,3.0,6.0,96,0.00,,,0.00,0.000000,,2013-06-09 08:53:00,
2013-06-09 09:02:00,69.0,68.0,-100.00,ESE,111,3.0,6.0,96,0.00,,,0.00,0.000000,,2013-06-09 09:02:00,
2013-06-09 09:33:00,69.0,68.0,-100.00,East,98,3.0,5.0,97,0.00,,,0.00,0.000000,,2013-06-09 09:33:00,
2013-06-09 09:43:00,69.0,68.0,-100.00,East,98,3.0,5.0,97,0.00,,,0.00,0.000000,,2013-06-09 09:43:00,
2013-06-09 09:52:00,69.0,68.0,-100.00,East,98,3.0,5.0,97,0.00,,,0.00,0.000000,,2013-06-09 09:52:00,
2013-06-09 10:03:00,69.0,68.0,-100.00,East,98,3.0,5.0,97,0.00,,,0.00,0.000000,,2013-06-09 10:03:00,
2013-06-09 10:32:00,68.0,67.0,-100.00,ESE,116,3.0,5.0,97,0.00,,,0.00,0.000000,,2013-06-09 10:32:00,
2013-06-09 10:43:00,68.0,67.0,-100.00,ESE,116,3.0,5.0,97,0.00,,,0.00,0.000000,,2013-06-09 10:43:00,
2013-06-09 10:52:00,68.0,67.0,-100.00,ESE,116,3.0,5.0,97,0.00,,,0.00,0.000000,,2013-06-09 10:52:00,
2013-06-09 11:02:00,68.0,67.0,-100.00,ESE,116,3.0,5.0,97,0.00,,,0.00,0.000000,,2013-06-09 11:02:00,
2013-06-09 11:32:00,68.0,67.0,-100.00,ENE,68,4.0,5.0,97,0.00,,,0.00,0.000000,,2013-06-09 11:32:00,
2013-06-09 11:42:00,68.0,67.0,-100.00,ENE,68,4.0,5.0,97,0.00,,,0.00,0.000000,,2013-06-09 11:42:00,
2013-06-09 11:53:00,68.0,67.0,-100.00,ENE,68,4.0,5.0,97,0.00,,,0.00,0.000000,,2013-06-09 11:53:00,
2013-06-09 12:02:00,68.0,67.0,-100.00,ENE,68,4.0,5.0,97,0.00,,,0.00,0.000000,,2013-06-09 12:02:00,
2013-06-09 12:32:00,68.0,67.0,-100.00,ENE,65,3.0,5.0,97,0.00,,,0.00,11.000000,,2013-06-09 12:32:00,
2013-06-09 12:42:00,68.0,67.0,-100.00,ENE,65,3.0,5.0,97,0.00,,,0.00,11.000000,,2013-06-09 12:42:00,
2013-06-09 12:52:00,68.0,67.0,-100.00,ENE,65,3.0,5.0,97,0.00,,,0.00,11.000000,,2013-06-09 12:52:00,
2013-06-09 13:02:00,68.0,67.0,-100.00,ENE,65,3.0,5.0,97,0.00,,,0.00,11.000000,,2013-06-09 13:02:00,
2013-06-09 13:32:00,71.0,70.0,-100.00,ESE,123,5.0,8.0,97,0.00,,,0.00,28.000000,,2013-06-09 13:32:00,
2013-06-09 13:42:00,71.0,70.0,-100.00,ESE,123,5.0,8.0,97,0.00,,,0.00,28.000000,,2013-06-09 13:42:00,
2013-06-09 13:52:00,71.0,70.0,-100.00,ESE,123,5.0,8.0,97,0.00,,,0.00,28.000000,,2013-06-09 13:52:00,
2013-06-09 14:02:00,71.0,70.0,-100.00,ESE,123,5.0,8.0,97,0.00,,,0.00,28.000000,,2013-06-09 14:02:00,
2013-06-09 14:32:00,76.0,74.0,-100.00,ESE,123,3.0,6.0,93,0.00,,,0.00,49.000000,,2013-06-09 14:32:00,
2013-06-09 14:43:00,76.0,74.0,-100.00,ESE,123,3.0,6.0,93,0.00,,,0.00,49.000000,,2013-06-09 14:43:00,
2013-06-09 14:52:00,76.0,74.0,-100.00,ESE,123,3.0,6.0,93,0.00,,,0.00,49.000000,,2013-06-09 14:52:00,
2013-06-09 15:02:00,76.0,74.0,-100.00,ESE,123,3.0,6.0,93,0.00,,,0.00,49.000000,,2013-06-09 15:02:00,
2013-06-09 15:33:00,84.0,75.0,-100.00,SSE,164,4.0,8.0,75,0.00,,,0.00,517.000000,,2013-06-09 15:33:00,
2013-06-09 15:43:00,84.0,75.0,-100.00,SSE,164,4.0,8.0,75,0.00,,,0.00,517.000000,,2013-06-09 15:43:00,
2013-06-09 15:53:00,84.0,75.0,-100.00,SSE,164,4.0,8.0,75,0.00,,,0.00,517.000000,,2013-06-09 15:53:00,
2013-06-09 16:03:00,84.0,75.0,-100.00,SSE,164,4.0,8.0,75,0.00,,,0.00,517.000000,,2013-06-09 16:03:00,
2013-06-09 16:33:00,87.0,75.0,-100.00,South,177,6.0,11.0,67,0.00,,,0.00,613.000000,,2013-06-09 16:33:00,
2013-06-09 16:43:00,87.0,75.0,-100.00,South,177,6.0,11.0,67,0.00,,,0.00,613.000000,,2013-06-09 16:43:00,
2013-06-09 16:53:00,87.0,75.0,-100.00,South,177,6.0,11.0,67,0.00,,,0.00,613.000000,,2013-06-09 16:53:00,
2013-06-09 17:02:00,87.0,75.0,-100.00,South,177,6.0,11.0,67,0.00,,,0.00,613.000000,,2013-06-09 17:02:00,
2013-06-09 17:32:00,88.0,73.0,-100.00,SSW,210,3.0,9.0,62,0.00,,,0.00,649.000000,,2013-06-09 17:32:00,
2013-06-09 17:42:00,88.0,73.0,-100.00,SSW,210,3.0,9.0,62,0.00,,,0.00,649.000000,,2013-06-09 17:42:00,
2013-06-09 17:52:00,88.0,73.0,-100.00,SSW,210,3.0,9.0,62,0.00,,,0.00,649.000000,,2013-06-09 17:52:00,
2013-06-09 18:02:00,88.0,73.0,-100.00,SSW,210,3.0,9.0,62,0.00,,,0.00,649.000000,,2013-06-09 18:02:00,
2013-06-09 18:33:00,90.0,73.0,-100.00,NNW,334,2.0,7.0,58,0.00,,,0.00,674.000000,,2013-06-09 18:33:00,
2013-06-09 19:32:00,71.0,63.0,-100.00,SSW,203,7.0,29.0,76,-99.99,,,0.25,209.000000,,2013-06-09 19:32:00,
2013-06-09 19:43:00,71.0,63.0,-100.00,SSW,203,7.0,29.0,76,-99.99,,,0.25,209.000000,,2013-06-09 19:43:00,
2013-06-09 19:52:00,71.0,63.0,-100.00,SSW,203,7.0,29.0,76,-99.99,,,0.25,209.000000,,2013-06-09 19:52:00,
2013-06-09 20:02:00,71.0,63.0,-100.00,SSW,203,7.0,29.0,76,-99.99,,,0.25,209.000000,,2013-06-09 20:02:00,
2013-06-09 20:32:00,71.0,69.0,-100.00,NW,318,5.0,17.0,95,0.03,,,0.28,11.000000,,2013-06-09 20:32:00,
2013-06-09 20:42:00,71.0,69.0,-100.00,NW,318,5.0,17.0,95,0.03,,,0.28,11.000000,,2013-06-09 20:42:00,
2013-06-09 20:52:00,71.0,69.0,-100.00,NW,318,5.0,17.0,95,0.03,,,0.28,11.000000,,2013-06-09 20:52:00,
2013-06-09 21:02:00,71.0,69.0,-100.00,NW,318,5.0,17.0,95,0.03,,,0.28,11.000000,,2013-06-09 21:02:00,
2013-06-09 21:33:00,71.0,69.0,-100.00,SW,217,2.0,11.0,95,0.05,,,0.33,15.000000,,2013-06-09 21:33:00,
2013-06-09 21:44:00,71.0,69.0,-100.00,SW,217,2.0,11.0,95,0.05,,,0.33,15.000000,,2013-06-09 21:44:00,
2013-06-09 21:53:00,71.0,69.0,-100.00,SW,217,2.0,11.0,95,0.05,,,0.33,15.000000,,2013-06-09 21:53:00,
2013-06-09 22:02:00,71.0,69.0,-100.00,SW,217,2.0,11.0,95,0.05,,,0.33,15.000000,,2013-06-09 22:02:00,
2013-06-09 22:33:00,72.0,71.0,-100.00,NNE,28,3.0,7.0,96,0.06,,,0.39,44.000000,,2013-06-09 22:33:00,
2013-06-09 22:42:00,72.0,71.0,-100.00,NNE,28,3.0,7.0,96,0.06,,,0.39,44.000000,,2013-06-09 22:42:00,
2013-06-09 22:52:00,72.0,71.0,-100.00,NNE,28,3.0,7.0,96,0.06,,,0.39,44.000000,,2013-06-09 22:52:00,
2013-06-09 23:02:00,72.0,71.0,-100.00,NNE,28,3.0,7.0,96,0.06,,,0.39,44.000000,,2013-06-09 23:02:00,
2013-06-09 23:32:00,72.0,71.0,-100.00,WSW,255,1.0,9.0,96,0.00,,,0.39,81.000000,,2013-06-09 23:32:00,
2013-06-09 23:43:00,72.0,71.0,-100.00,WSW,255,1.0,9.0,96,0.00,,,0.39,81.000000,,2013-06-09 23:43:00,
2013-06-09 23:52:00,72.0,71.0,-100.00,WSW,255,1.0,9.0,96,0.00,,,0.39,81.000000,,2013-06-09 23:52:00,